Flag for Germany Weather past 2 weeks in Eisenach, Thuringia, Germany

Now
50 °F

Passing clouds.


Feels Like: 50 °F
Forecast: 49 / 76 °F
Wind: 3 mph from North

Location: Meiningen

Current Time: Jul 31, 2015 at 3:23:45 AM

Latest Report: Jul 31, 2015 at 2:00 AM


Visibility: 34 mi

Pressure: 30.09 "Hg

Humidity: 80%

Dew point: 44 °F

Location of EisenachLocation

Historic Weather in Eisenach — Graph

°F

Eisenach temperature yesterday

Maximum temperature yesterday: 64 °F (at 6:00 PM)
Minimum temperature yesterday: 49 °F (at 7:00 AM)
Average temperature yesterday: 57 °F

Past Weeks' High & Low Weather Summary

 TemperatureHumidityPressure
High91 °F (Jul 17, 6:00 PM)100% (Jul 19, 4:00 AM)30.09 "Hg (Jul 19, 4:00 AM)
Low49 °F (Jul 30, 7:00 AM)22% (Jul 17, 6:00 PM)29.62 "Hg (Jul 27, 12:00 PM)
Average66 °F65%29.89 "Hg
* Reported Jul 16 2:00 AM — Jul 31 2:00 AM, Eisenach, Weather by CustomWeather, © 2015

Note: Actual official high and low records may vary slightly from our data, if they occured in-between our weather recording intervals... More about our weather records

Advertising

Eisenach weather history for previous 24 hours

 ConditionsComfort  
Time TempWeatherWind HumidityBarometerVisibility
2:00 AM
Fri, Jul 31
50 °FPassing clouds.3 mph80%30.09 "Hg34 mi
1:00 AM51 °FOvercast.2 mph79%30.08 "Hg40 mi
10:00 PM
Thu, Jul 30
56 °FOvercast.3 mph66%30.03 "Hg43 mi
9:00 PM57 °FPartly sunny.6 mph68%30.03 "Hg28 mi
8:00 PM59 °FOvercast.3 mph50%30.00 "Hg43 mi
7:00 PM60 °FOvercast.5 mph54%29.99 "Hg43 mi
6:00 PM64 °FOvercast.5 mph47%29.97 "Hg40 mi
4:00 PM61 °FOvercast.6 mph47%29.97 "Hg37 mi
3:00 PM62 °FOvercast.5 mph50%29.96 "Hg34 mi
2:00 PM60 °FOvercast.6 mph51%29.97 "Hg31 mi
1:00 PM60 °FOvercast.6 mph52%29.96 "Hg31 mi
12:00 PM59 °FOvercast.6 mph55%29.96 "Hg34 mi
10:00 AM58 °FPassing clouds.5 mph57%29.96 "Hg22 mi
9:00 AM56 °FSunny.5 mph65%29.96 "Hg25 mi
8:00 AM50 °FPassing clouds.3 mph80%29.97 "Hg25 mi
7:00 AM49 °FSunny.2 mph80%29.97 "Hg40 mi
4:00 AM51 °FClear.5 mph73%29.95 "Hg43 mi
3:00 AM52 °FClear.5 mph71%29.94 "Hg43 mi
Weather by CustomWeather, © 2015

See weather overviewHow to use our weather pages